This demonstration page uses our WeatherBlox Daily Observations layout. Learn more.

Left ArrowRight Arrow

53.62937, 11.41316

Hourly Observations for October 22, 2021

Temp ( °F °C ) Dew Point ( °F °C ) Humidity (%) Winds ( mph kmh ) Pressure ( in mb ) Visibility ( mi km ) Precip ( " mm )
12:20 am 00:20 Mostly Cloudy 43 6 39 4 87 87 VRB 6 9 29.65 1004 30 48 N/A
12:50 am 00:50 Mostly Cloudy 43 6 39 4 87 87 VRB 7 11 29.65 1004 30 48 N/A
1:20 am 01:20 Mostly Cloudy 43 6 39 4 87 87 WSW 9 15 29.65 1004 30 48 N/A
1:50 am 01:50 Mostly Cloudy 45 7 39 4 81 81 VRB 8 13 29.65 1004 30 48 N/A
2:50 am 02:50 Mostly Cloudy 45 7 41 5 87 87 WSW 8 13 29.65 1004 30 48 N/A
3:20 am 03:20 Mostly Cloudy 45 7 41 5 87 87 WSW 10 17 29.68 1005 30 48 N/A
3:50 am 03:50 Mostly Cloudy 43 6 41 5 93 93 WSW 8 13 29.68 1005 30 48 N/A
4:20 am 04:20 Mostly Cloudy 43 6 41 5 93 93 VRB 10 17 29.65 1004 30 48 N/A
4:50 am 04:50 Mostly Cloudy 43 6 41 5 93 93 SW 9 15 29.68 1005 30 48 N/A
5:20 am 05:20 Mostly Cloudy 45 7 41 5 87 87 VRB 8 13 29.65 1004 30 48 N/A
5:50 am 05:50 Mostly Cloudy 45 7 41 5 87 87 VRB 8 13 29.65 1004 30 48 N/A
6:20 am 06:20 Mostly Cloudy 45 7 41 5 87 87 VRB 7 11 29.65 1004 30 48 N/A
6:50 am 06:50 Mostly Cloudy 45 7 41 5 87 87 VRB 8 13 29.62 1003 30 48 N/A
7:20 am 07:20 Mostly Cloudy 45 7 41 5 87 87 VRB 10 17 29.62 1003 30 48 N/A
7:50 am 07:50 Mostly Cloudy with Light Rain 45 7 41 5 87 87 VRB 9 15 29.59 1002 30 48 N/A
8:20 am 08:20 Mostly Cloudy with Light Rain 45 7 41 5 87 87 VRB 9 15 29.59 1002 30 48 N/A
8:50 am 08:50 Mostly Cloudy with Light Rain 45 7 41 5 87 87 VRB 9 15 29.59 1002 30 48 N/A
9:20 am 09:20 Mostly Cloudy 45 7 41 5 87 87 VRB 10 17 29.59 1002 30 48 N/A
9:50 am 09:50 Mostly Cloudy with Light Showers 46 8 41 5 82 82 VRB 10 17 29.59 1002 30 48 N/A
10:20 am 10:20 Mostly Cloudy with Light Rain 46 8 43 6 87 87 VRB 12 19 29.59 1002 30 48 N/A
10:50 am 10:50 Mostly Cloudy with Light Showers 46 8 43 6 87 87 WSW 15 24 29.56 1001 30 48 N/A
11:20 am 11:20 Mostly Cloudy with Showers 46 8 43 6 87 87 WSW 14 22 29.59 1002 4 6 N/A
11:50 am 11:50 Mostly Cloudy with Light Showers 45 7 41 5 87 87 W 15 24 29.59 1002 30 48 N/A
12:20 pm 12:20 Mostly Cloudy with Light Showers 45 7 43 6 93 93 WSW 13 20 29.59 1002 6 9 N/A
12:50 pm 12:50 Mostly Cloudy with Showers Nearby 46 8 43 6 87 87 WSW 12 19 29.59 1002 30 48 N/A
1:20 pm 13:20 Mostly Cloudy with Light Showers 46 8 43 6 87 87 WSW 14 22 29.62 1003 30 48 N/A
1:50 pm 13:50 Mostly Cloudy with Light Showers 46 8 43 6 87 87 W 13 20 29.62 1003 30 48 N/A
2:20 pm 14:20 Mostly Cloudy with Light Rain 46 8 43 6 87 87 W 8 13 29.65 1004 30 48 N/A
2:50 pm 14:50 Mostly Cloudy 46 8 43 6 87 87 W 8 13 29.65 1004 30 48 N/A
3:20 pm 15:20 Partly Cloudy with Showers Nearby 46 8 43 6 87 87 W 8 13 29.68 1005 30 48 N/A
3:50 pm 15:50 Mostly Sunny 48 9 41 5 76 76 W 12 19 29.71 1006 30 48 N/A
4:20 pm 16:20 Mostly Sunny 46 8 39 4 76 76 W 13 20 29.71 1006 30 48 N/A
4:50 pm 16:50 Mostly Sunny 46 8 41 5 82 82 W 10 17 29.74 1007 30 48 N/A
5:20 pm 17:20 Partly Cloudy 46 8 39 4 76 76 W 13 20 29.77 1008 30 48 N/A
5:50 pm 17:50 Mostly Sunny 45 7 39 4 81 81 W 13 20 29.77 1008 30 48 N/A
6:20 pm 18:20 Partly Cloudy with Light Rain 43 6 39 4 87 87 W 9 15 29.80 1009 30 48 N/A
6:50 pm 18:50 Partly Cloudy with Light Rain 43 6 37 3 81 81 W 9 15 29.80 1009 30 48 N/A
7:20 pm 19:20 Mostly Clear 43 6 39 4 87 87 W 9 15 29.83 1010 7 11 N/A
7:50 pm 19:50 Mostly Clear 45 7 37 3 76 76 W 10 17 29.86 1011 30 48 N/A
8:20 pm 20:20 Mostly Clear 43 6 37 3 81 81 W 8 13 29.86 1011 30 48 N/A
8:50 pm 20:50 Mostly Clear 41 5 37 3 87 87 WSW 6 9 29.89 1012 30 48 N/A
9:20 pm 21:20 Mostly Clear 43 6 37 3 81 81 W 10 17 29.89 1012 30 48 N/A
9:50 pm 21:50 Mostly Clear 43 6 37 3 81 81 W 9 15 29.89 1012 7 11 N/A
10:20 pm 22:20 Mostly Clear 43 6 37 3 81 81 WSW 9 15 29.92 1013 30 48 N/A
10:50 pm 22:50 Mostly Clear 43 6 37 3 81 81 WSW 8 13 29.92 1013 30 48 N/A
11:20 pm 23:20 Mostly Clear 43 6 37 3 81 81 WSW 8 13 29.95 1014 30 48 N/A
11:50 pm 23:50 Mostly Clear 43 6 39 4 87 87 WSW 8 13 29.95 1014 30 48 N/A

Powered by AerisWeather